Weather History for KBRD - May, 2014

Change the Weather History Date:

Friday, May 23, 2014

  Actual Average Record
Temperature  
Mean Temperature 63 °F -  
Max Temperature 81 °F 69 °F 94 °F (1964)
Min Temperature 46 °F 44 °F 30 °F (1963)
Degree Days  
Heating Degree Days 2    
Growing Degree Days 13 (Base 50)    
Moisture  
Dew Point 42 °F    
Average Humidity 47    
Maximum Humidity 77    
Minimum Humidity 27    
Precipitation  
Precipitation 0.00 in - - ()
Sea Level Pressure  
Sea Level Pressure 30.18 in    
Wind  
Wind Speed 3 mph (South)    
Max Wind Speed 12 mph    
Max Gust Speed 20 mph    
Visibility 10 miles    
Events      
Averages and records for this station are not official NWS values.
T = Trace of Precipitation, MM = Missing Value Source: NWS Daily Summary

Daily Weather History Graph

Daily Weather History Graph

Search for Another Location

Airport or City:

Trip Planner

Search our weather history database for the weather conditions in past years. The results will help you decide how hot, cold, wet, or windy it might be!

Date:

Astronomy

May. 23, 2014 Rise Set
Actual Time 5:34 AM CDT 8:52 PM CDT
Civil Twilight 4:57 AM CDT 9:29 PM CDT
Nautical Twilight 4:10 AM CDT 10:17 PM CDT
Astronomical Twilight 3:09 AM CDT 11:18 PM CDT
Moon 2:48 AM CDT (5/23) 3:28 PM CDT (5/23)
Length of Visible Light 16h 31m
Length of Day
15h 18m
Waning Crescent, 27% of the Moon is Illuminated
May 23
Waning Crescent
May 28
New
Jun 5
First Quarter
Jun 12
Full
Jun 19
Last Quarter

Hourly Weather History & Observations

Time (CDT) Temp. Dew Point Humidity Pressure Visibility Wind Dir Wind Speed Gust Speed Precip Events Conditions
12:53 AM 51.1 °F 37.9 °F 61% 30.21 in 10.0 mi Calm Calm - N/A   Clear
1:53 AM 46.9 °F 37.9 °F 71% 30.22 in 10.0 mi Calm Calm - N/A   Clear
2:53 AM 48.0 °F 37.9 °F 68% 30.22 in 10.0 mi Calm Calm - N/A   Clear
3:53 AM 46.0 °F 37.9 °F 73% 30.22 in 10.0 mi Calm Calm - N/A   Clear
4:53 AM 46.0 °F 39.0 °F 76% 30.22 in 10.0 mi Calm Calm - N/A   Clear
5:53 AM 46.9 °F 39.9 °F 77% 30.22 in 10.0 mi Calm Calm - N/A   Clear
6:53 AM 54.0 °F 44.1 °F 69% 30.22 in 10.0 mi Calm Calm - N/A   Clear
7:53 AM 61.0 °F 44.1 °F 54% 30.24 in 10.0 mi SSE 5.8 mph - N/A   Clear
8:53 AM 66.9 °F 44.1 °F 44% 30.23 in 10.0 mi SSE 9.2 mph - N/A   Clear
10:53 AM 73.0 °F 42.1 °F 33% 30.22 in 10.0 mi North - - N/A   Clear
11:53 AM 75.0 °F 42.1 °F 31% 30.21 in 10.0 mi South 10.4 mph - N/A   Clear
12:53 PM 75.9 °F 42.1 °F 30% 30.20 in 10.0 mi South 10.4 mph - N/A   Clear
1:53 PM 78.1 °F 43.0 °F 29% 30.19 in 10.0 mi South 11.5 mph 19.6 mph N/A   Clear
2:53 PM 79.0 °F 42.1 °F 27% 30.17 in 10.0 mi SW 5.8 mph - N/A   Clear
3:53 PM 80.1 °F 43.0 °F 27% 30.15 in 10.0 mi Variable 6.9 mph - N/A   Clear
4:53 PM 80.1 °F 45.0 °F 29% 30.14 in 10.0 mi SSE 10.4 mph 17.3 mph N/A   Clear
5:53 PM 80.1 °F 45.0 °F 29% 30.12 in 10.0 mi South 10.4 mph - N/A   Clear
6:53 PM 79.0 °F 45.0 °F 30% 30.12 in 10.0 mi South 10.4 mph - N/A   Partly Cloudy
7:53 PM 75.9 °F 44.1 °F 32% 30.10 in 10.0 mi SSE 8.1 mph - N/A   Mostly Cloudy
9:53 PM 69.1 °F 46.0 °F 44% 30.11 in 10.0 mi SE 4.6 mph - N/A   Clear
10:53 PM 66.9 °F 46.0 °F 47% 30.11 in 10.0 mi SSE 4.6 mph - N/A   Clear